Date,TemperatureHighF,TemperatureAvgF,TemperatureLowF,DewpointHighF,DewpointAvgF,DewpointLowF,HumidityHigh,HumidityAvg,HumidityLow,PressureMaxIn,PressureMinIn,WindSpeedMaxMPH,WindSpeedAvgMPH,GustSpeedMaxMPH,PrecipitationSumIn
2013-1-1,36,30,18,24,15,3,67,52,43,29.79,29.59,23,4,23,0.00
2013-1-2,33,21,11,13,6,-2,66,51,43,29.97,29.76,17,3,17,0.00
2013-1-3,30,15,3,10,0,-12,57,50,43,30.00,29.82,6,1,6,0.00
2013-1-4,40,28,14,23,16,7,83,61,48,29.82,29.68,14,3,14,0.00
2013-1-5,42,34,21,21,18,12,74,52,41,30.09,29.74,20,4,20,0.00
2013-1-6,48,32,22,28,22,15,82,68,45,30.03,29.76,9,1,9,0.00
2013-1-7,42,31,17,28,19,10,87,62,40,30.21,29.82,11,2,11,0.00
2013-1-8,49,31,16,28,21,10,84,67,42,30.21,30.09,12,2,12,0.00
2013-1-9,39,30,19,32,24,15,88,78,64,30.21,29.85,10,1,10,0.00
2013-1-10,47,39,26,28,21,18,76,50,39,30.36,29.91,26,4,26,0.00
2013-1-11,36,30,22,33,24,18,96,80,62,30.36,30.00,4,0,4,0.00
2013-1-12,42,37,34,41,37,33,100,98,95,30.03,29.94,4,0,4,0.00
2013-1-13,45,41,36,45,41,36,100,100,100,29.97,29.82,7,1,7,0.00
2013-1-14,53,45,37,51,37,22,100,75,43,30.12,29.71,17,3,17,0.00
2013-1-15,40,35,29,25,22,20,77,58,48,30.15,30.06,8,1,8,0.00
2013-1-16,33,32,30,32,29,21,98,89,63,30.06,29.68,5,1,5,0.00
2013-1-17,40,33,27,34,24,9,99,73,45,29.94,29.68,15,2,15,0.00
2013-1-18,28,23,19,10,3,-3,50,41,35,30.27,29.88,19,3,19,0.00
2013-1-19,47,35,22,30,19,6,68,53,40,30.18,29.71,17,4,17,0.00
2013-1-20,50,39,27,29,22,6,70,51,30,29.79,29.41,20,5,20,0.00
2013-1-21,30,24,18,18,10,5,81,57,41,29.91,29.62,13,2,13,0.00
2013-1-22,24,18,11,17,3,-4,83,52,35,29.94,29.59,17,4,17,0.00
2013-1-23,16,10,7,4,-5,-14,65,51,37,30.00,29.91,24,5,24,0.00
2013-1-24,20,11,2,-3,-11,-18,40,36,34,30.12,29.94,23,5,23,0.00
2013-1-25,26,16,8,5,-5,-13,60,38,35,30.18,29.88,13,3,13,0.00
2013-1-26,26,17,10,7,1,-4,64,51,35,30.12,29.85,18,2,18,0.00
2013-1-27,34,20,9,8,1,-7,60,42,32,30.30,30.12,14,2,14,0.00
2013-1-28,30,24,15,26,14,0,91,65,40,30.30,29.82,10,1,10,0.00
2013-1-29,36,30,26,32,27,23,95,87,73,30.00,29.82,6,1,6,0.00
2013-1-30,55,43,32,55,43,32,100,99,95,29.94,29.26,16,3,16,0.00
2013-1-31,59,46,30,59,33,11,100,66,36,29.47,28.85,37,8,37,0.00
2013-2-1,32,27,22,17,8,2,71,45,36,29.94,29.47,23,6,23,0.00
2013-2-2,34,24,18,13,6,1,65,46,37,30.09,29.88,15,5,15,0.00
2013-2-3,33,24,15,16,13,10,80,63,45,29.88,29.59,18,1,18,0.00
2013-2-4,32,24,19,13,8,6,74,52,39,29.79,29.59,20,4,20,0.00
2013-2-5,34,26,21,20,12,6,77,55,44,29.85,29.76,4,1,5,0.00
2013-2-6,38,29,18,27,15,1,87,58,34,30.15,29.74,18,3,18,0.00
2013-2-7,37,25,14,11,6,2,63,44,33,30.36,30.15,9,1,9,0.00
2013-2-8,32,27,19,27,19,5,100,75,41,30.27,29.50,16,2,16,0.00
2013-2-9,29,22,12,24,11,-6,100,70,34,30.09,29.53,18,2,18,0.00
2013-2-10,44,17,-8,15,-2,-24,64,45,28,30.27,30.09,8,1,8,0.00
2013-2-11,39,29,12,38,24,0,100,84,60,30.15,29.50,5,1,5,0.00
2013-2-12,45,38,32,37,25,18,99,60,45,29.76,29.50,20,4,20,0.00
2013-2-13,49,38,31,26,21,17,79,51,39,29.74,29.56,11,2,11,0.00
2013-2-14,51,34,18,26,21,14,85,62,36,29.82,29.56,6,1,6,0.00
2013-2-15,54,40,30,32,29,21,89,66,42,29.82,29.74,11,3,11,0.00
2013-2-16,44,35,28,30,22,9,91,62,38,29.79,29.56,10,2,10,0.00
2013-2-17,28,23,14,9,1,-4,45,39,34,29.68,29.38,28,6,28,0.00
2013-2-18,33,21,12,6,-1,-7,50,38,30,30.00,29.68,20,5,20,0.00
2013-2-19,48,34,19,36,21,3,94,62,44,30.00,29.44,11,1,11,0.00
2013-2-20,36,30,25,35,14,7,96,50,39,29.71,29.44,23,6,23,0.00
2013-2-21,31,26,23,11,9,6,57,48,42,30.09,29.68,21,5,21,0.00
2013-2-22,47,32,19,24,17,9,74,55,39,30.21,30.09,7,1,7,0.00
2013-2-23,37,34,32,34,28,20,98,78,60,30.15,29.71,4,0,4,0.00
2013-2-24,39,35,32,35,33,30,100,93,79,29.76,29.56,9,2,9,0.00
2013-2-25,46,35,24,30,26,20,90,70,46,30.06,29.76,9,1,9,0.00
2013-2-26,43,37,32,32,26,22,87,67,46,30.15,29.94,6,0,6,0.00
2013-2-27,42,38,33,42,36,25,99,92,66,29.94,29.44,10,1,10,0.00
2013-2-28,47,37,32,38,33,31,100,87,60,29.47,29.38,6,0,6,0.00
2013-3-1,46,37,31,36,27,22,99,69,42,29.56,29.41,13,2,13,0.00
2013-3-2,39,36,32,23,22,18,62,56,48,29.56,29.47,13,3,13,0.00
2013-3-3,37,32,29,26,20,16,78,62,52,29.53,29.44,13,3,13,0.00
2013-3-4,37,31,26,18,16,14,64,55,45,29.65,29.50,22,5,22,0.00
2013-3-5,50,37,28,27,20,16,64,52,39,29.88,29.65,9,2,10,0.00
2013-3-6,42,37,32,34,28,22,82,71,53,29.88,29.82,15,2,15,0.00
2013-3-7,37,34,32,33,28,23,99,81,58,29.88,29.82,17,2,17,0.00
2013-3-8,40,35,31,32,27,20,100,77,48,30.00,29.79,12,1,12,0.00
2013-3-9,60,42,31,26,21,18,67,46,24,30.15,30.00,10,1,10,0.00
2013-3-10,57,40,25,33,26,20,84,61,38,30.24,30.09,8,2,8,0.00
2013-3-11,53,43,36,41,34,28,86,72,53,30.15,29.94,11,3,11,0.00
2013-3-12,54,49,43,53,46,33,99,89,67,29.94,29.53,13,3,13,0.91
2013-3-13,50,42,32,33,25,19,82,53,34,29.68,29.59,17,3,17,0.00
2013-3-14,37,31,26,24,13,6,59,47,38,29.71,29.62,23,5,23,0.00
2013-3-15,44,32,23,29,16,5,83,51,35,29.74,29.50,18,5,18,0.00
2013-3-16,42,34,26,24,15,11,67,45,36,29.71,29.56,16,3,16,0.00
2013-3-17,38,32,24,14,10,6,52,40,31,30.12,29.71,18,4,18,0.00
2013-3-18,42,30,19,22,8,0,75,39,29,30.27,30.00,11,1,11,0.00
2013-3-19,37,32,29,34,29,22,97,88,75,30.00,29.50,8,1,8,0.21
2013-3-20,41,32,25,30,18,14,90,56,41,29.65,29.56,18,2,18,0.09
2013-3-21,41,31,22,20,15,10,81,54,33,29.65,29.44,12,2,12,0.09
2013-3-22,41,32,23,23,15,9,63,49,41,29.65,29.50,20,4,20,0.09
2013-3-23,44,36,31,24,18,15,68,49,36,29.68,29.56,27,6,27,0.09
2013-3-24,49,39,31,24,20,18,58,46,35,29.71,29.56,14,3,14,0.09
2013-3-25,50,38,30,26,21,18,63,50,38,29.59,29.32,12,2,12,0.09
2013-3-26,48,40,30,27,23,17,62,51,34,29.65,29.41,12,2,12,0.09
2013-3-27,52,40,24,26,22,16,79,52,33,29.74,29.62,15,3,15,0.09
2013-3-28,53,43,34,34,28,22,81,55,38,29.88,29.74,13,2,13,0.09
2013-3-29,57,46,34,32,28,24,80,51,34,29.91,29.82,15,3,15,0.09
2013-3-30,58,46,32,30,24,18,74,44,26,29.94,29.85,29,2,29,0.09
2013-3-31,59,44,28,39,27,18,81,54,30,29.94,29.53,18,3,18,0.09
2013-4-1,60,45,34,45,34,14,97,68,39,29.68,29.38,24,4,24,0.16
2013-4-2,41,34,30,18,14,11,54,42,32,29.82,29.68,26,6,26,0.09
2013-4-3,44,36,31,17,14,10,55,40,31,30.06,29.82,24,6,24,0.09
2013-4-4,61,42,29,27,19,12,59,41,27,30.18,29.88,14,4,14,0.09
2013-4-5,62,46,36,30,25,19,69,46,24,29.88,29.53,23,4,23,0.09
2013-4-6,55,40,32,24,14,8,58,36,20,30.15,29.76,18,2,18,0.09
2013-4-7,59,44,29,39,26,12,76,51,36,30.15,29.82,19,4,19,0.09
2013-4-8,71,54,38,41,37,32,92,58,29,29.91,29.79,10,2,10,0.09
2013-4-9,70,60,48,50,40,33,84,51,32,29.85,29.71,20,4,20,0.09
2013-4-10,72,58,48,52,46,37,92,67,44,29.82,29.65,8,1,8,0.09
2013-4-11,57,50,39,49,36,24,94,63,35,29.97,29.68,10,2,10,0.09
2013-4-12,41,39,37,37,34,28,95,85,61,29.97,29.62,9,1,9,0.49
2013-4-13,56,45,36,37,33,29,98,67,39,29.76,29.59,12,2,12,0.09
2013-4-14,52,45,36,38,29,21,90,56,34,30.06,29.74,19,4,19,0.09
2013-4-15,66,47,32,36,29,22,76,51,31,30.21,30.03,11,2,11,0.09
2013-4-16,70,52,37,49,39,26,78,62,38,30.21,29.91,18,5,18,0.00
2013-4-17,72,55,48,52,35,24,89,50,24,30.15,29.91,5,2,5,0.00
2013-4-18,65,53,38,44,32,28,72,48,29,30.21,29.94,11,4,11,0.00
2013-4-19,74,62,52,62,56,42,97,82,56,29.94,29.47,21,7,21,0.04
2013-4-20,62,52,40,61,36,19,97,59,29,30.09,29.47,12,6,12,0.41
2013-4-21,61,44,34,26,20,16,52,38,23,30.44,30.09,12,4,12,0.00
2013-4-22,62,47,34,29,26,23,68,46,27,30.50,30.36,10,2,10,0.00
2013-4-23,45,41,37,37,32,24,83,70,54,30.39,29.94,5,2,5,0.00
2013-4-24,78,56,42,46,42,37,86,62,31,29.94,29.62,11,4,11,0.00
2013-4-25,66,54,42,51,32,20,96,47,20,30.09,29.68,15,6,15,0.08
2013-4-26,71,53,36,36,29,24,72,43,25,30.24,30.09,12,4,12,0.00
2013-4-27,76,55,38,39,33,30,79,47,23,30.24,30.06,9,2,9,0.00
2013-4-28,77,58,40,42,34,24,79,45,25,30.15,30.00,13,2,13,0.00
2013-4-29,69,57,49,45,34,24,65,43,27,30.09,30.03,13,2,13,0.00
2013-4-30,78,61,50,38,32,20,56,35,21,30.15,30.06,11,2,11,0.00
2013-5-1,83,60,39,40,33,21,64,39,21,30.27,30.15,12,2,12,0.00
2013-5-2,87,62,43,45,38,27,79,46,21,30.27,30.09,9,2,9,0.00
2013-5-3,76,59,47,43,36,28,60,42,27,30.33,30.15,8,3,8,0.00
2013-5-4,79,60,43,46,36,20,84,47,17,30.18,30.03,4,2,4,0.00
2013-5-5,80,56,37,39,33,23,74,46,22,30.15,30.00,4,2,4,0.00
2013-5-6,85,59,42,47,41,34,81,56,22,30.09,29.91,9,3,9,0.00
2013-5-7,86,65,46,53,48,41,87,57,28,30.00,29.88,10,4,10,0.00
2013-5-8,74,64,56,62,56,51,94,78,47,29.97,29.85,6,2,6,0.38
2013-5-9,73,62,56,60,57,53,97,84,55,29.85,29.68,5,1,5,0.16
2013-5-10,86,67,55,59,54,50,99,69,35,29.79,29.71,10,2,10,0.05
2013-5-11,68,63,60,62,58,52,96,86,63,29.74,29.50,12,3,12,0.29
2013-5-12,71,61,50,60,45,25,96,60,30,29.68,29.41,20,3,20,0.00
2013-5-13,59,50,40,32,28,24,70,44,31,29.85,29.68,14,5,14,0.00
2013-5-14,64,50,40,32,28,25,66,43,28,29.88,29.79,12,3,12,0.00
2013-5-15,66,51,34,53,40,29,84,68,38,29.88,29.50,13,3,13,0.04
2013-5-16,87,67,48,53,42,33,96,49,18,29.62,29.47,21,3,21,0.00
2013-5-17,71,59,51,41,38,34,65,46,32,29.85,29.62,10,1,10,0.00
2013-5-18,76,68,56,45,43,38,61,41,29,30.12,30.03,7,5,7,0.00
2013-5-19,67,57,49,55,50,42,95,78,56,30.15,30.00,6,3,6,0.21
2013-5-20,92,69,56,68,60,55,98,76,36,30.00,29.74,8,1,8,0.00
2013-5-21,93,72,57,69,63,52,96,77,41,29.79,29.62,6,2,6,0.04
2013-5-22,85,66,55,69,60,51,98,81,53,29.82,29.65,8,2,8,0.29
2013-5-23,74,68,65,68,65,64,98,91,78,29.71,29.59,10,3,10,1.41
2013-5-24,68,60,47,66,56,44,99,87,64,29.71,29.44,13,2,13,0.66
2013-5-25,48,46,43,46,43,38,96,90,79,29.71,29.62,13,3,13,0.75
2013-5-26,61,50,44,42,38,35,85,66,45,29.94,29.62,18,4,18,0.29
2013-5-27,79,58,40,44,38,32,93,55,22,29.97,29.88,15,2,15,0.29
2013-5-28,74,60,44,54,44,38,86,60,34,30.03,29.94,12,2,12,0.29
2013-5-29,86,67,58,67,60,54,97,82,49,29.97,29.76,15,2,15,1.28
2013-5-30,95,76,63,71,65,59,100,75,34,29.91,29.82,8,2,8,0.29
2013-5-31,98,80,66,69,64,55,93,63,25,29.91,29.76,9,2,9,0.00
2013-6-1,97,80,69,67,63,59,75,59,35,29.79,29.68,10,4,10,0.29
2013-6-2,89,76,69,68,65,0,85,70,46,29.71,29.56,15,5,15,0.29
2013-6-3,84,72,65,67,63,51,97,76,36,29.68,29.59,5,1,5,0.83
2013-6-4,70,63,56,43,41,38,55,44,36,29.91,29.76,12,4,12,0.00
2013-6-5,84,65,52,51,45,39,82,51,30,30.00,29.88,5,3,5,0.00
2013-6-6,74,64,53,55,48,42,84,58,37,29.97,29.88,3,3,3,0.08
2013-6-7,59,57,54,58,55,51,97,92,82,29.88,29.59,4,1,4,1.66
2013-6-8,78,64,52,60,55,52,100,75,47,29.82,29.44,12,4,12,0.83
2013-6-9,86,69,56,58,53,48,91,60,31,29.97,29.82,7,6,7,0.00
2013-6-10,69,63,56,63,58,53,95,84,72,29.97,29.74,5,4,5,0.62
2013-6-11,72,62,58,63,60,56,98,92,71,29.74,29.38,10,1,10,0.87
2013-6-12,78,66,58,57,50,45,82,58,36,29.65,29.41,20,3,20,0.00
2013-6-13,60,56,52,57,53,49,97,90,73,29.65,29.44,2,0,2,0.96
2013-6-14,81,62,51,55,52,46,99,74,32,29.62,29.44,10,1,10,0.62
2013-6-15,88,67,52,59,48,40,94,56,22,29.76,29.62,10,2,10,0.00
2013-6-16,77,66,53,59,53,47,81,62,45,29.76,29.50,10,2,10,0.00
2013-6-17,90,71,60,65,59,50,92,68,31,29.71,29.59,17,2,17,0.25
2013-6-18,77,65,57,64,61,54,97,87,61,29.74,29.68,12,1,12,0.45
2013-6-19,84,65,55,56,49,39,97,61,27,29.94,29.71,11,1,11,0.08
2013-6-20,88,67,51,54,49,42,88,57,27,30.06,29.94,10,2,10,0.05
2013-6-21,90,73,60,62,56,51,77,58,31,30.06,29.97,8,3,8,0.05
2013-6-22,90,74,64,60,55,52,67,52,31,30.03,29.91,12,3,12,0.05
2013-6-23,94,78,66,76,63,53,100,64,33,29.97,29.79,13,3,13,0.00
2013-6-24,95,78,68,71,67,56,92,71,34,29.85,29.71,18,2,18,0.17
2013-6-25,94,78,68,69,66,62,93,70,37,29.76,29.56,17,2,17,0.00
2013-6-26,88,78,72,70,67,61,90,70,46,29.62,29.56,10,2,10,0.08
2013-6-27,87,74,68,70,68,64,95,81,51,29.62,29.50,10,1,10,0.09
2013-6-28,88,75,67,72,68,64,97,81,51,29.50,29.29,13,3,13,0.62
2013-6-29,89,77,70,69,67,62,92,72,43,29.53,29.29,13,3,13,0.00
2013-6-30,87,77,71,70,68,65,89,75,52,29.74,29.53,11,3,11,0.00
2013-7-1,78,74,72,74,71,69,97,89,78,29.85,29.74,8,2,8,1.33
2013-7-2,88,77,72,73,71,68,96,81,53,29.97,29.85,11,3,11,0.00
2013-7-3,93,79,72,71,69,65,90,74,43,30.00,29.94,11,4,11,0.00
2013-7-4,98,82,73,73,70,65,92,69,38,30.00,29.91,13,4,13,0.00
2013-7-5,98,84,74,72,69,64,84,64,36,29.97,29.85,13,3,13,0.00
2013-7-6,96,84,76,72,68,62,81,61,37,29.88,29.79,10,2,10,0.00
2013-7-7,91,81,74,75,70,67,88,71,49,29.85,29.71,8,1,8,0.00
2013-7-8,94,80,72,72,67,60,93,67,38,29.82,29.71,15,2,15,0.41
2013-7-9,86,75,70,72,69,66,94,81,56,29.88,29.79,6,1,6,0.12
2013-7-10,86,76,73,76,71,69,96,84,60,29.82,29.59,12,2,12,0.42
2013-7-11,87,77,72,74,68,55,98,76,37,29.74,29.59,9,1,9,0.12
2013-7-12,86,74,68,63,57,52,72,57,42,29.97,29.74,11,1,11,0.00
2013-7-13,81,73,67,72,64,51,92,73,53,30.09,29.97,5,1,5,0.04
2013-7-14,95,82,73,74,69,62,94,69,36,30.12,30.00,9,2,9,0.04
2013-7-15,98,84,74,73,67,59,91,61,29,30.00,29.91,11,1,11,0.04
2013-7-16,99,83,72,69,64,58,86,56,29,29.97,29.91,10,1,10,0.04
2013-7-17,98,84,72,71,67,62,89,61,32,30.00,29.82,8,2,8,0.04
2013-7-18,99,86,76,71,68,61,78,58,30,29.82,29.74,10,2,10,0.13
2013-7-19,98,90,77,73,69,64,85,52,38,29.74,29.53,16,5,16,0.04
2013-7-20,92,82,71,74,69,55,84,65,40,29.65,29.50,23,2,23,0.33
2013-7-21,91,78,69,64,60,53,81,55,32,29.76,29.65,5,1,6,0.00
2013-7-22,88,77,68,71,65,60,87,68,40,29.79,29.65,8,1,8,0.08
2013-7-23,88,76,72,76,71,65,97,83,51,29.65,29.35,11,2,11,1.50
2013-7-24,83,76,67,72,63,49,96,67,34,29.76,29.41,15,3,15,0.00
2013-7-25,67,62,58,58,50,41,87,64,52,29.88,29.76,10,1,10,0.04
2013-7-26,81,66,62,64,60,56,96,81,48,29.85,29.76,8,1,8,0.25
2013-7-27,88,72,60,66,60,54,99,71,32,29.85,29.76,6,2,8,0.00
2013-7-28,82,72,64,65,62,58,93,71,44,29.79,29.74,7,1,7,0.00
2013-7-29,90,77,69,69,61,50,89,61,30,29.85,29.76,11,2,11,0.00
2013-7-30,84,72,62,57,53,49,79,52,31,29.91,29.85,12,2,12,0.00
2013-7-31,88,72,61,58,55,49,83,57,31,29.94,29.82,7,1,7,0.00
2013-8-1,78,69,63,65,61,58,92,77,52,29.82,29.65,11,2,11,0.20
2013-8-2,86,73,65,67,60,51,98,69,34,29.68,29.59,14,2,14,0.62
2013-8-3,85,71,65,63,60,53,93,71,41,29.68,29.59,8,2,13,0.00
2013-8-4,81,67,58,60,54,47,90,66,36,29.74,29.62,12,2,12,0.13
2013-8-5,83,66,54,54,46,39,91,54,25,29.82,29.74,13,2,13,0.00
2013-8-6,86,67,52,55,50,45,88,58,31,29.91,29.82,8,1,8,0.00
2013-8-7,83,70,59,59,55,50,86,62,36,29.97,29.88,9,2,9,0.00
2013-8-8,84,74,69,69,65,58,88,74,56,29.88,29.79,10,3,10,0.00
2013-8-9,79,74,72,77,71,67,98,91,81,29.82,29.56,10,2,10,1.74
2013-8-10,84,73,65,71,56,40,97,58,32,29.82,29.62,10,3,12,0.00
2013-8-11,83,68,53,57,50,42,84,56,33,29.91,29.79,10,1,10,0.00
2013-8-12,87,72,63,61,56,49,85,59,35,29.82,29.71,8,1,8,0.00
2013-8-13,81,71,66,69,64,58,92,79,53,29.74,29.50,6,2,6,0.37
2013-8-14,75,63,58,64,52,44,93,67,37,29.79,29.50,15,3,15,0.00
2013-8-15,79,63,53,54,50,44,88,65,33,29.91,29.79,11,1,11,0.00
2013-8-16,86,67,53,58,52,48,88,62,31,30.00,29.91,12,1,12,0.00
2013-8-17,86,69,56,57,54,49,92,61,30,30.09,30.00,4,1,5,0.00
2013-8-18,79,69,60,62,58,53,89,70,44,30.06,29.88,4,1,4,0.00
2013-8-19,80,70,61,61,57,52,86,65,40,29.88,29.79,10,2,10,0.00
2013-8-20,87,73,62,63,58,53,91,64,33,29.91,29.79,9,1,9,0.00
2013-8-21,90,75,62,64,60,55,90,62,31,29.97,29.82,10,2,10,0.00
2013-8-22,87,75,66,71,65,59,89,71,46,29.85,29.65,11,2,11,0.08
2013-8-23,83,72,64,67,57,47,94,62,33,29.91,29.65,10,1,10,0.05
2013-8-24,86,67,56,53,49,45,77,54,25,30.12,29.91,9,1,9,0.00
2013-8-25,87,69,53,58,51,46,91,58,27,30.18,29.97,11,2,11,0.00
2013-8-26,79,70,66,67,59,52,93,69,55,30.00,29.71,8,2,8,0.33
2013-8-27,89,75,68,70,67,64,98,79,45,29.71,29.62,5,1,6,0.49
2013-8-28,89,76,68,70,67,59,97,76,39,29.74,29.62,9,1,9,0.00
2013-8-29,76,70,65,68,63,56,93,78,56,29.85,29.71,9,1,9,0.00
2013-8-30,88,73,63,66,62,58,86,72,44,29.82,29.62,9,2,9,0.00
2013-8-31,79,75,71,72,69,66,91,83,75,29.65,29.59,8,2,8,0.09
2013-9-1,81,74,69,74,70,67,98,90,71,29.68,29.62,10,1,10,0.54
2013-9-2,80,74,73,73,71,67,96,88,71,29.65,29.50,6,1,6,0.16
2013-9-3,78,71,65,72,62,52,98,75,44,29.68,29.50,10,2,10,0.00
2013-9-4,82,70,60,58,54,47,87,60,32,29.74,29.65,11,2,11,0.00
2013-9-5,74,67,62,62,52,38,88,63,28,30.08,29.68,12,2,12,0.00
2013-9-6,68,57,0,52,46,0,96,72,39,30.25,29.85,8,1,8,0.00
2013-9-7,78,60,47,60,51,46,95,75,45,30.13,29.89,10,1,10,0.00
2013-9-8,74,67,61,64,56,44,89,71,40,29.99,29.77,14,2,14,0.00
2013-9-9,71,57,43,53,46,41,95,70,47,30.24,29.99,9,1,9,0.00
2013-9-10,77,66,58,73,62,51,96,87,65,30.15,30.01,10,1,10,0.13
2013-9-11,94,79,68,79,73,67,99,84,54,30.07,29.92,9,1,9,0.13
2013-9-12,87,76,68,75,71,66,97,84,64,30.03,29.66,13,1,13,0.00
2013-9-13,76,68,60,67,63,54,98,86,68,29.79,29.58,13,1,13,0.04
2013-9-14,67,59,52,55,52,49,93,77,61,30.07,29.78,10,2,10,0.00
2013-9-15,71,58,44,54,49,43,97,76,47,30.18,30.05,9,1,9,0.00
2013-9-16,69,59,49,57,51,38,94,77,57,30.27,30.02,9,1,9,0.04
2013-9-17,65,52,41,50,42,37,94,71,42,30.43,30.27,9,1,9,0.00
2013-9-18,73,55,41,56,47,40,98,77,42,30.34,30.14,8,1,8,0.00
2013-9-19,78,60,44,62,52,43,97,77,41,30.16,30.03,7,0,7,0.00
2013-9-20,78,62,47,60,54,46,98,78,44,30.09,29.98,8,1,8,0.00
2013-9-21,74,66,57,66,61,55,96,85,71,30.01,29.66,13,2,13,0.01
2013-9-22,71,62,53,67,54,45,97,76,53,29.87,29.59,15,2,15,0.98
2013-9-23,62,54,47,48,44,41,86,70,52,30.03,29.86,14,2,14,0.00
2013-9-24,69,55,41,50,44,38,92,69,34,30.03,29.83,11,1,11,0.00
2013-9-25,72,57,43,58,50,42,97,79,51,29.97,29.86,7,0,7,0.00
2013-9-26,66,58,52,55,51,47,95,78,55,30.11,29.97,8,0,8,0.00
2013-9-27,63,56,49,55,52,48,96,85,69,30.27,30.10,6,0,6,0.00
2013-9-28,74,57,45,61,52,44,98,85,52,30.34,30.24,5,0,5,0.00
2013-9-29,72,57,48,57,51,47,98,82,45,30.25,30.08,9,0,9,0.00
2013-9-30,72,56,45,58,50,44,98,83,47,30.10,29.95,5,0,5,0.00
2013-10-1,77,59,44,63,54,43,98,83,53,29.99,29.85,5,0,5,0.00
2013-10-2,77,65,52,63,58,52,98,79,59,29.98,29.86,13,1,13,0.00
2013-10-3,75,61,49,57,52,46,96,75,41,30.10,29.98,7,0,7,0.00
2013-10-4,66,57,52,61,56,50,97,94,83,30.08,30.02,5,0,5,1.32
2013-10-5,72,64,59,65,61,58,97,90,73,30.10,30.03,5,0,5,0.01
2013-10-6,64,59,56,62,58,56,98,96,93,30.17,30.07,5,0,5,0.62
2013-10-7,77,64,57,70,62,56,98,93,77,30.09,29.75,18,2,18,0.50
2013-10-8,66,56,47,56,47,39,95,75,39,30.36,29.92,9,1,9,0.00
2013-10-9,65,52,42,50,45,41,97,79,47,30.46,30.34,8,0,8,0.00
2013-10-10,58,50,44,51,47,42,96,88,74,30.35,30.16,6,0,6,0.00
2013-10-11,72,57,48,60,51,46,96,80,52,30.16,30.06,8,0,8,0.00
2013-10-12,63,55,45,57,51,44,97,88,75,30.37,30.13,6,1,10,0.00
2013-10-13,63,56,49,52,50,47,94,81,63,30.43,30.34,8,0,8,0.00
2013-10-14,66,52,40,52,46,39,97,82,49,30.39,30.23,7,0,7,0.00
2013-10-15,71,60,51,58,52,49,94,79,56,30.26,30.12,6,0,6,0.00
2013-10-16,60,54,49,54,51,47,96,88,74,30.15,29.90,3,0,3,0.00
2013-10-17,74,63,54,62,58,52,96,85,63,29.90,29.67,8,1,8,0.01
2013-10-18,65,60,51,61,51,42,96,75,48,29.92,29.60,15,2,15,0.04
2013-10-19,65,53,40,51,44,38,96,72,45,29.97,29.73,13,1,13,0.02
2013-10-20,61,52,41,52,42,34,97,70,37,30.03,29.70,16,1,16,0.02
2013-10-21,67,52,37,46,41,35,96,70,39,30.12,29.97,9,1,9,0.00
2013-10-22,64,53,43,53,46,39,97,80,61,29.97,29.71,9,1,9,0.00
2013-10-23,50,44,35,40,37,33,95,79,55,29.80,29.59,4,0,4,0.00
2013-10-24,53,45,35,40,33,26,89,65,38,29.92,29.68,16,2,16,0.00
2013-10-25,50,40,31,36,31,28,93,73,46,30.17,29.92,16,2,16,0.00
2013-10-26,55,43,29,37,32,28,94,67,39,30.17,29.86,18,2,18,0.00
2013-10-27,54,48,36,38,35,31,85,62,42,30.08,29.80,10,2,13,0.00
2013-10-28,57,44,30,39,33,28,95,69,43,30.35,30.08,16,2,16,0.00
2013-10-29,50,39,31,34,28,25,90,68,41,30.45,30.35,4,0,5,0.05
2013-10-30,55,41,31,45,36,28,96,83,64,30.36,30.18,3,0,5,0.02
2013-10-31,60,45,35,58,44,33,98,96,92,30.24,29.77,11,0,11,0.07
2013-11-1,67,62,56,62,58,47,96,85,70,29.77,29.46,21,3,21,0.09
2013-11-2,67,53,40,50,44,39,97,76,44,29.75,29.58,11,1,11,0.01
2013-11-3,52,43,32,46,30,18,81,62,44,30.44,29.74,11,2,11,0.00
2013-11-4,44,34,25,26,21,17,86,60,36,30.69,30.44,8,1,8,0.00
2013-11-5,52,39,27,39,31,23,88,73,52,30.71,30.50,10,1,10,0.00
2013-11-6,61,51,41,50,44,38,92,77,57,30.50,30.04,21,2,21,0.00
2013-11-7,61,52,41,58,48,33,94,84,68,30.04,29.70,8,2,11,0.07
2013-11-8,47,39,31,36,32,24,95,76,44,30.12,29.85,18,2,18,0.02
2013-11-9,47,39,29,34,29,24,85,67,51,30.24,29.99,10,1,10,0.00
2013-11-10,52,46,42,42,37,31,90,71,57,29.99,29.77,16,2,16,0.08
2013-11-11,52,46,40,33,31,28,66,55,45,30.12,29.90,21,4,21,0.00
2013-11-12,49,37,28,38,25,17,81,64,53,30.23,29.89,14,3,17,0.00
2013-11-13,37,30,26,19,17,13,72,57,39,30.33,30.19,13,2,13,0.00
2013-11-14,52,38,29,34,23,18,84,56,34,30.20,30.07,12,1,12,0.00
2013-11-15,60,43,27,35,26,17,87,54,22,30.21,30.10,10,1,10,0.00
2013-11-16,60,45,37,39,35,32,91,70,37,30.31,30.19,6,0,6,0.00
2013-11-17,59,46,36,58,43,33,98,90,80,30.29,29.79,6,0,6,0.00
2013-11-18,63,58,48,60,46,32,96,67,42,29.79,29.52,16,4,16,0.08
2013-11-19,48,40,33,33,25,19,62,54,45,30.33,29.70,21,4,21,0.00
2013-11-20,42,32,22,24,19,15,85,61,35,30.63,30.33,12,1,12,0.00
2013-11-21,47,34,19,35,24,16,91,70,41,30.65,30.38,9,0,9,0.00
2013-11-22,51,46,42,48,43,35,97,91,75,30.38,29.84,6,1,6,0.08
2013-11-23,49,40,29,47,27,16,95,61,45,29.98,29.83,22,4,22,0.00
2013-11-24,28,24,20,22,8,-1,82,50,28,30.27,29.88,24,6,24,0.00
2013-11-25,35,27,18,18,10,1,57,49,43,30.42,30.26,14,3,14,0.00
2013-11-26,39,35,32,34,23,15,96,64,49,30.33,29.97,10,1,10,0.20
2013-11-27,54,44,35,54,42,30,98,95,75,29.97,29.29,17,2,17,2.23
2013-11-28,38,30,25,31,18,10,76,61,43,30.46,29.56,20,5,20,0.00
2013-11-29,36,28,22,21,17,13,90,65,43,30.74,30.45,10,1,10,0.00
2013-11-30,33,24,14,22,16,11,88,70,48,30.80,30.41,7,0,7,0.00
2013-12-1,42,35,30,38,30,20,90,80,65,30.41,30.02,5,0,5,0.00
2013-12-2,40,36,29,37,34,28,97,91,86,30.03,29.91,3,0,3,0.00
2013-12-3,47,37,29,38,34,27,98,90,70,29.99,29.86,8,0,8,0.00
2013-12-4,46,33,26,34,29,24,95,86,59,30.18,29.98,5,0,5,0.00
2013-12-5,53,41,34,52,39,32,99,93,83,30.18,29.91,11,0,11,0.07
2013-12-6,54,46,34,53,43,32,99,91,75,30.15,29.85,14,1,14,0.35
2013-12-7,39,34,30,33,28,23,97,79,59,30.48,30.08,15,2,15,0.16
2013-12-8,32,30,25,24,21,17,86,69,57,30.59,30.46,6,1,6,0.00
2013-12-9,34,31,27,33,29,20,97,93,68,30.46,29.92,8,1,8,0.01
2013-12-10,34,31,23,33,29,19,98,92,77,30.03,29.80,9,1,9,0.00
2013-12-11,30,24,22,23,20,18,91,83,74,30.24,30.03,11,2,11,0.00
2013-12-12,26,22,16,22,12,4,86,67,43,30.31,30.08,15,2,15,0.00
2013-12-13,30,24,18,22,14,10,77,66,58,30.38,30.02,14,4,14,0.00
2013-12-14,23,16,14,14,10,6,91,76,58,30.59,30.08,7,1,7,0.00
2013-12-15,33,25,17,27,21,14,94,86,72,30.08,29.51,14,2,14,0.00
2013-12-16,29,22,10,21,13,6,94,68,45,30.22,29.75,16,2,16,0.00
2013-12-17,16,11,2,13,8,-2,90,88,85,30.25,29.96,5,1,8,0.00
2013-12-18,32,23,14,24,18,11,93,83,68,30.09,29.93,14,1,14,0.00
2013-12-19,42,32,18,28,24,14,93,76,54,30.13,29.96,14,2,14,0.09
2013-12-20,51,39,28,36,32,26,94,77,56,30.11,29.91,7,1,7,0.27
2013-12-21,55,47,42,47,41,34,92,80,70,29.96,29.85,10,1,10,0.00
2013-12-22,64,57,49,60,55,47,98,91,82,29.93,29.71,15,2,15,0.00
2013-12-23,59,47,38,55,44,30,97,91,73,30.12,29.90,14,1,14,0.79
2013-12-24,38,33,23,30,21,11,76,61,45,30.28,30.06,16,3,16,0.00
2013-12-25,25,21,16,12,8,4,72,57,41,30.52,30.28,20,2,20,0.00
2013-12-26,30,24,16,27,19,10,93,81,63,30.47,30.11,7,0,7,0.00
2013-12-27,36,25,14,26,20,11,96,80,59,30.31,30.21,9,1,9,0.03
2013-12-28,48,33,23,30,26,20,93,77,48,30.25,30.01,11,1,11,0.01
2013-12-29,41,35,27,38,33,25,97,92,74,30.03,29.45,13,1,13,1.23
2013-12-30,37,29,18,36,21,8,97,74,46,30.20,29.59,19,3,19,0.01
2013-12-31,27,21,14,20,12,6,84,69,49,30.23,30.03,8,2,15,0.00
2014-1-1,30,24,18,18,11,6,84,59,43,30.38,30.22,14,2,14,0.00
2014-1-2,22,17,8,19,14,5,90,88,84,30.33,29.81,11,1,11,0.00